Stations météo

Publicité
St-Nazaire, France (7217): Température de l'air & dewpoint: 06.12.2018 19:00:00 - 12.12.2018 19:00:00 (CET)St-Nazaire, France (7217): Température de l'air 5cm: 06.12.2018 19:00:00 - 12.12.2018 19:00:00 (CET)St-Nazaire, France (7217): Température de l'air -20cm: 06.12.2018 19:00:00 - 12.12.2018 19:00:00 (CET)St-Nazaire, France (7217): Vitesse du vent & gusts: 06.12.2018 19:00:00 - 12.12.2018 19:00:00 (CET)St-Nazaire, France (7217): Direction du vent: 06.12.2018 19:00:00 - 12.12.2018 19:00:00 (CET)St-Nazaire, France (7217): reduced air pressure: 06.12.2018 19:00:00 - 12.12.2018 19:00:00 (CET)St-Nazaire, France (7217): visibility: 06.12.2018 19:00:00 - 12.12.2018 19:00:00 (CET)St-Nazaire, France (7217): Quantités de précipitations: 06.12.2018 19:00:00 - 12.12.2018 19:00:00 (CET)
Date & Time tt [°C] td [°C] tt 5cm [°C] tt -20cm [°C] ff [km/h] ff [knt] fx [km/h] fx [knt] dd ppp [hPa] vv [km] rr [mm]
12.12.2018 19:00:00 2,8 1,6 1,2 9,6 11 6 18 10 E 1016,1 9 0,0
12.12.2018 18:00:00 3,1 1,6 2,0 9,5 12 6 18 10 E 1016,6 10 0,0
12.12.2018 17:00:00 4,3 2,3 3,3 9,5 9 5 26 14 E 1017,1 14 0,0
12.12.2018 16:00:00 6,4 3,9 6,9 9,5 18 10 26 14 ENE 1017,6 14 0,0
12.12.2018 15:00:00 6,3 4,3 7,1 9,6 11 6 22 12 E 1018,2 14 0,0
12.12.2018 14:00:00 6,4 4,4 6,9 9,6 15 8 22 12 E 1018,5 12 0,0
12.12.2018 13:00:00 5,8 4,4 5,9 9,6 11 6 19 11 E 1019,3 11 0,0
12.12.2018 12:00:00 5,1 4,2 5,1 9,6 14 8 20 11 E 1019,9 10 0,0
12.12.2018 11:00:00 4,6 3,7 4,7 9,6 13 7 18 10 ENE 1020,3 4,7 0,0
12.12.2018 10:00:00 4,5 3,6 4,5 9,7 10 6 16 9 E 1020,4 8 0,0
12.12.2018 09:00:00 4,5 3,6 4,5 9,7 10 5 16 8 ENE 1019,9 7 0,0
12.12.2018 08:00:00 4,5 3,6 4,5 9,7 11 6 19 10 ENE 1019,7 5 0,0
12.12.2018 07:00:00 4,7 3,8 4,7 9,8 12 7 33 18 E 1019,6 6 0,8
12.12.2018 06:00:00 4,9 4,0 4,6 9,8 19 10 30 16 E 1019,3 3,1 1,8
12.12.2018 05:00:00 4,9 3,9 4,8 9,8 16 9 27 14 E 1019,9 3,1 0,6
12.12.2018 04:00:00 4,6 3,6 4,6 9,9 15 8 29 15 ESE 1020,3 3,7 0,0
12.12.2018 03:00:00 4,6 3,6 4,6 9,9 15 8 31 17 ESE 1020,1 6 0,0
12.12.2018 02:00:00 4,5 3,5 4,2 9,9 23 12 35 19 E 1020,0 5 0,0
12.12.2018 01:00:00 4,3 3,3 3,6 9,9 16 9 38 21 SE 1021,6 5 0,0
12.12.2018 00:00:00 3,9 3,0 3,6 9,9 16 9 28 15 ESE 1021,6 2,6 0,0
11.12.2018 23:00:00 4,9 3,7 4,5 9,9 17 9 30 16 SE 1022,0 6 0,0
11.12.2018 22:00:00 5,8 4,6 5,5 9,9 20 11 29 16 SE 1021,5 8 0,0
11.12.2018 21:00:00 6,4 5,2 5,2 9,9 16 9 26 14 ESE 1021,7 8 0,0
11.12.2018 20:00:00 6,1 4,4 5,6 9,9 14 8 23 12 E 1021,8 9 0,0
11.12.2018 19:00:00 7,9 5,7 4,3 9,9 15 8 23 12 SE 1021,8 13 0,0
11.12.2018 18:00:00 7,1 4,6 4,4 9,8 10 5 13 7 SE 1022,1 20 0,0
11.12.2018 17:00:00 9,0 5,7 8,1 9,9 8 4 17 9 SSE 1022,7 33 0,0
11.12.2018 16:00:00 9,7 6,0 10,4 9,9 10 6 18 10 SE 1022,7 33 0,0
11.12.2018 15:00:00 10,5 6,6 12,7 9,9 10 5 17 9 SSE 1023,0 19 0,0
11.12.2018 14:00:00 10,0 6,3 13,5 9,9 13 7 22 12 SSE 1023,7 20 0,0
11.12.2018 13:00:00 9,5 6,9 10,9 10,0 14 8 27 14 SE 1024,0 15 0,0
11.12.2018 12:00:00 7,9 6,8 8,5 10,0 13 7 21 11 ESE 1024,9 11 0,0
11.12.2018 11:00:00 6,1 5,7 5,9 10,1 11 6 16 9 ESE 1025,4 3,0 0,0
11.12.2018 10:00:00 4,8 4,5 0,1 10,1 8 5 14 8 ESE 1025,8 2,9 0,0
11.12.2018 09:00:00 2,3 1,9 -0,4 10,2 4 2 9 5 E 1026,1 0,2 0,0
11.12.2018 08:00:00 2,1 1,7 1,6 10,2 8 4 13 7 ENE 1025,8 0,1 0,0
11.12.2018 07:00:00 2,1 1,7 1,8 10,3 9 5 12 7 ENE 1025,7 0,1 0,0
11.12.2018 06:00:00 2,2 1,8 1,4 10,4 8 4 11 6 ENE 1026,1 0,1 0,0
11.12.2018 05:00:00 1,8 1,4 1,0 10,5 6 3 8 5 ENE 1026,6 0,1 0,0
11.12.2018 04:00:00 2,2 1,8 0,7 10,5 3 2 4 2 N 1027,4 0,1 0,0
11.12.2018 03:00:00 1,7 1,3 0,0 10,6 0 0 4 2 N 1028,1 0,1 0,0
11.12.2018 02:00:00 1,5 0,9 -0,2 10,6 3 1 5 3 NE 1028,7 0,2 0,0
11.12.2018 01:00:00 3,7 3,1 -0,5 10,7 4 2 5 3 NE 1029,1 0,1 0,0
11.12.2018 00:00:00 1,9 1,2 -0,7 10,7 0 0 3 2 N 1029,4 0,2 0,0
10.12.2018 23:00:00 3,0 2,4 -0,4 10,8 4 2 7 4 E 1029,7 0,2 0,0
10.12.2018 22:00:00 4,4 3,5 0,0 10,8 3 2 5 3 E 1030,1 0,2 0,0
10.12.2018 21:00:00 5,4 4,4 0,6 10,8 3 1 10 5 SW 1030,2 0,4 0,0
10.12.2018 20:00:00 5,9 4,7 1,4 10,8 6 3 11 6 W 1030,5 11 0,0
10.12.2018 19:00:00 7,5 5,0 2,6 10,8 6 3 9 5 W 1030,7 20 0,0
10.12.2018 18:00:00 9,5 5,7 7,2 10,7 8 4 18 10 WNW 1030,9 40 0,0
10.12.2018 17:00:00 10,3 5,7 9,3 10,8 11 6 17 9 W 1031,1 47 0,0
10.12.2018 16:00:00 11,4 5,5 13,2 10,7 8 4 17 9 NW 1031,2 39 0,0
10.12.2018 15:00:00 11,4 5,7 14,1 10,8 10 6 18 10 WNW 1030,9 51 0,0
10.12.2018 14:00:00 11,8 6,3 12,9 10,8 10 6 19 10 WNW 1031,8 42 0,0
10.12.2018 13:00:00 11,1 6,0 12,9 10,9 11 6 23 12 WNW 1032,2 54 0,0
10.12.2018 12:00:00 10,9 7,2 12,7 10,9 10 5 18 10 W 1032,8 19 0,0
10.12.2018 11:00:00 9,0 6,4 8,6 11,0 9 5 18 10 WNW 1032,7 17 0,0
10.12.2018 10:00:00 7,4 5,4 5,7 11,0 9 5 21 11 WNW 1032,6 15 0,0
10.12.2018 09:00:00 6,7 5,0 4,7 11,1 11 6 17 9 W 1032,1 16 0,0
10.12.2018 08:00:00 6,6 5,4 2,2 11,1 7 4 15 8 WNW 1032,1 16 0,0
10.12.2018 07:00:00 7,3 5,3 5,3 11,2 7 4 19 11 WNW 1031,7 17 0,0
10.12.2018 06:00:00 7,0 5,1 4,8 11,3 11 6 22 12 W 1031,3 16 0,0
10.12.2018 05:00:00 6,7 4,9 3,5 11,3 10 5 16 9 W 1031,3 17 0,0
10.12.2018 04:00:00 6,8 4,6 4,6 11,3 10 5 21 11 W 1031,3 18 0,0
10.12.2018 03:00:00 7,4 5,2 5,5 11,4 12 6 18 10 W 1031,3 17 0,0
10.12.2018 02:00:00 8,8 5,9 7,7 11,4 16 8 26 14 W 1030,9 17 0,0
10.12.2018 01:00:00 9,0 5,9 - - 18 10 31 17 W 1030,8 17 -
10.12.2018 00:00:00 9,1 6,0 8,3 11,5 20 11 31 17 W 1030,5 17 0,0
09.12.2018 23:00:00 9,4 5,9 8,7 11,5 21 11 36 19 W 1030,3 18 0,0
09.12.2018 22:00:00 9,8 6,1 8,9 11,5 21 12 34 18 W 1029,7 18 0,0
09.12.2018 21:00:00 9,8 6,3 8,1 11,6 19 10 34 18 W 1029,1 18 0,0
09.12.2018 20:00:00 10,2 6,0 9,4 11,5 21 11 34 18 WNW 1028,2 35 0,0
09.12.2018 19:00:00 10,7 5,9 9,6 11,6 23 12 35 19 WNW 1027,3 38 0,0
09.12.2018 18:00:00 11,4 5,5 10,7 11,5 26 14 47 25 WNW 1026,3 44 0,0
09.12.2018 17:00:00 12,1 5,9 11,7 11,6 23 12 46 25 WNW 1025,3 40 0,0
09.12.2018 16:00:00 12,4 6,0 12,2 11,5 23 13 49 26 WNW 1023,9 20 0,0
09.12.2018 15:00:00 12,6 6,4 12,6 11,6 29 16 65 35 W 1023,2 19 0,0
09.12.2018 14:00:00 12,9 6,0 13,2 11,6 34 18 67 36 WNW 1022,6 20 0,0
09.12.2018 13:00:00 12,7 8,4 11,9 11,6 37 20 68 37 W 1022,0 14 0,0
09.12.2018 12:00:00 12,7 8,2 10,3 11,7 38 21 64 34 W 1021,8 12 0,0
09.12.2018 11:00:00 11,5 7,8 10,2 11,7 41 22 68 37 W 1021,6 7 0,0
09.12.2018 10:00:00 11,9 6,4 10,9 11,7 36 19 56 30 W 1020,8 12 0,0
09.12.2018 09:00:00 11,5 5,4 10,6 11,7 38 20 65 35 W 1020,1 14 0,0
09.12.2018 08:00:00 11,4 6,3 10,5 11,7 33 18 65 35 W 1019,4 12 0,0
09.12.2018 07:00:00 11,5 5,6 10,7 11,7 41 22 64 34 W 1018,9 13 0,0
09.12.2018 06:00:00 11,6 5,9 10,7 11,8 36 20 60 33 W 1018,3 12 0,0
09.12.2018 05:00:00 11,5 6,0 10,8 11,8 37 20 98 53 WNW 1018,2 11 0,0
09.12.2018 04:00:00 11,7 8,2 10,0 11,8 38 20 76 41 W 1017,8 9 0,0
09.12.2018 03:00:00 12,2 8,1 10,8 11,7 50 27 82 44 W 1016,9 7 0,0
09.12.2018 02:00:00 11,5 8,9 11,0 11,7 31 17 73 40 W 1016,7 10 0,6
09.12.2018 01:00:00 12,2 9,6 10,9 11,7 35 19 75 41 W 1016,7 7 0,2
09.12.2018 00:00:00 12,7 9,9 11,3 11,7 44 24 69 37 W 1016,2 6 0,0
08.12.2018 23:00:00 12,4 9,6 11,0 11,7 42 23 61 33 W 1016,0 8 0,0
08.12.2018 22:00:00 12,4 10,1 11,3 11,7 34 18 64 35 W 1016,5 9 0,4
08.12.2018 21:00:00 12,8 10,0 12,0 11,6 32 17 65 35 W 1016,0 10 0,0
08.12.2018 20:00:00 12,7 10,6 11,6 11,6 35 19 59 32 W 1016,2 11 0,0
08.12.2018 19:00:00 12,9 11,1 12,1 11,6 34 18 74 40 W 1016,4 9 0,2
08.12.2018 18:00:00 12,9 12,1 12,4 11,6 41 22 66 36 WSW 1015,9 6 0,4
08.12.2018 17:00:00 12,5 11,7 12,0 11,6 41 22 71 38 WSW 1016,4 3,1 0,6
08.12.2018 16:00:00 12,1 11,3 11,7 11,5 43 23 65 35 WSW 1016,8 2,8 0,4
08.12.2018 15:00:00 12,2 10,9 11,8 11,6 35 19 56 31 WSW 1017,7 4,3 0,4
08.12.2018 14:00:00 11,9 11,0 11,7 11,6 34 18 57 31 WSW 1019,1 3,5 0,6
08.12.2018 13:00:00 12,0 10,6 11,1 11,6 28 15 55 30 WSW 1019,8 12 0,2
08.12.2018 12:00:00 12,1 9,7 10,9 11,6 31 17 62 34 WSW 1020,7 13 0,2
08.12.2018 11:00:00 12,0 9,2 10,5 11,6 33 18 54 29 WSW 1021,2 15 0,0
08.12.2018 10:00:00 10,7 9,0 10,0 11,6 22 12 62 34 W 1021,3 20 0,0
08.12.2018 09:00:00 11,3 8,3 9,9 11,7 29 15 44 24 WSW 1021,0 15 0,0
08.12.2018 08:00:00 10,8 8,2 9,6 11,7 29 15 54 29 WSW 1020,9 15 0,0
08.12.2018 07:00:00 10,7 7,4 9,9 11,8 23 12 46 25 W 1020,7 15 0,0
08.12.2018 06:00:00 10,3 7,2 9,2 11,8 27 15 47 26 W 1020,4 18 0,0
08.12.2018 05:00:00 10,3 8,1 8,9 11,9 27 14 58 31 W 1020,6 18 0,0
08.12.2018 04:00:00 10,3 7,5 8,7 12,0 26 14 47 25 W 1020,8 18 0,2
08.12.2018 03:00:00 10,2 5,8 9,5 12,0 29 16 51 27 W 1020,8 37 0,0
08.12.2018 02:00:00 10,7 7,0 9,3 12,0 29 16 57 31 WSW 1021,0 16 0,0
08.12.2018 01:00:00 10,5 6,4 8,6 12,1 26 14 44 24 WSW 1021,0 19 0,0
08.12.2018 00:00:00 10,0 6,3 8,5 12,2 23 13 42 23 W 1020,7 20 0,0
07.12.2018 23:00:00 10,1 5,9 8,9 12,2 28 15 42 23 W 1020,6 36 0,0
07.12.2018 22:00:00 9,9 5,7 7,2 12,3 22 12 40 22 W 1020,7 19 0,0
07.12.2018 21:00:00 9,7 5,9 7,5 12,4 20 11 29 16 W 1020,6 39 0,0
07.12.2018 20:00:00 9,3 4,9 8,0 12,4 22 12 42 23 W 1020,0 18 0,0
07.12.2018 19:00:00 9,8 4,8 8,7 12,4 22 12 46 25 W 1019,1 44 0,0
07.12.2018 18:00:00 10,0 2,1 9,3 12,4 40 21 68 37 W 1018,0 60 0,0
07.12.2018 17:00:00 10,8 4,9 10,3 12,4 35 19 61 33 W 1016,7 19 0,0
07.12.2018 16:00:00 10,9 5,0 9,8 12,4 31 17 77 42 W 1015,9 31 0,0
07.12.2018 15:00:00 11,0 5,3 9,2 12,5 51 28 87 47 W 1014,7 19 0,2
07.12.2018 14:00:00 12,8 6,6 12,3 12,5 41 22 64 35 W 1013,4 18 0,0
07.12.2018 13:00:00 12,3 9,5 11,3 12,5 29 16 66 36 W 1013,0 18 0,0
07.12.2018 12:00:00 11,3 10,2 11,2 12,4 36 20 74 40 W 1012,8 19 3,7
07.12.2018 11:00:00 12,6 11,8 12,3 12,5 47 25 70 38 SW 1011,9 4,4 1,0
07.12.2018 10:00:00 12,5 11,6 12,1 12,5 39 21 63 34 SSW 1013,2 10 1,4
07.12.2018 09:00:00 12,5 11,1 12,5 12,5 39 21 59 32 SSW 1014,3 12 0,0
07.12.2018 08:00:00 12,7 10,4 11,8 12,5 37 20 54 29 SW 1015,9 16 0,0
07.12.2018 07:00:00 12,5 10,7 11,8 12,5 29 15 50 27 SW 1017,1 13 0,0
07.12.2018 06:00:00 12,2 10,8 11,4 12,5 32 18 52 28 SW 1017,7 14 0,0
07.12.2018 05:00:00 12,5 10,7 11,9 12,5 32 17 51 28 SW 1018,8 16 0,0
07.12.2018 04:00:00 12,4 10,8 11,6 12,5 30 16 48 26 SW 1019,8 14 0,0
07.12.2018 03:00:00 12,2 10,8 11,6 12,5 22 12 39 21 SW 1020,7 17 0,0
07.12.2018 02:00:00 12,1 11,3 11,9 12,5 26 14 39 21 SW 1021,4 9 0,0
07.12.2018 01:00:00 12,1 11,3 11,9 12,5 25 13 39 21 SW 1022,1 6 0,0
07.12.2018 00:00:00 12,1 11,3 12,0 12,5 23 12 36 19 SW 1022,9 11 0,0
06.12.2018 23:00:00 12,3 11,4 11,9 12,5 22 12 37 20 SW 1023,3 7 0,0
06.12.2018 22:00:00 12,4 11,1 12,2 12,5 23 13 35 19 SW 1023,4 11 0,0
06.12.2018 21:00:00 12,5 10,9 12,4 12,5 22 12 38 20 SW 1024,0 13 0,0
06.12.2018 20:00:00 12,7 10,9 12,4 12,5 23 12 42 23 WSW 1024,2 15 0,0
06.12.2018 19:00:00 12,6 10,7 12,1 12,4 22 12 32 18 SW 1023,9 14 0,0

tt = Température de l'air
td = dewpoint
tt 5cm = Température de l'air 5cm
tt -20cm = Température de l'air -20cm
ff = Vitesse du vent
fx = gusts
dd = Direction du vent
ppp = reduced air pressure
vv = visibility
rr = Quantités de précipitations

stations d'obs. à proximité